Location: Chittendens Corners
(41.2320°N, 81.4940°W)
Time: 16:43:04
(UTC+00:00)

Cosmos 1953 Rocket - Pass Details

Date: 29 October 2020
Orbit: 605 x 634 km, 82.5° (Epoch: 28 November)

Event Time Altitude Azimuth Distance (km) Brightness Sun altitude
Rises 23:02:54 0° 352° (N) 2,906 7.0 -7.8°
Reaches altitude 10° 23:05:07 10° 352° (N) 2,000 6.1 -8.2°
Maximum altitude 23:09:34 90° 213° (SSW) 632 3.6 -9.1°
Drops below altitude 10° 23:14:01 10° 174° (S) 2,000 6.2 -9.9°
Sets 23:16:14 0° 174° (S) 2,906 7.1 -10.3°
